,,PA_Meas_PMT16A,,PR_Meas_QMR101_102,,RH_Meas_QMH101,,SR_Meas_QMS101,,TA_Meas_QMH101,,GenWind,,GenWind,
time,status,PA,status,PR,status,RH,status,SR,status,TA,status,DirAvg,status,SpdAvg,
2014-02-06, 00:38:04,INVALID - VALUE NOT AVAILABLE,0,INVALID - VALUE NOT AVAILABLE,0,INVALID - VALUE NOT AVAILABLE,0,INVALID - VALUE NOT AVAILABLE,0,INVALID - VALUE NOT AVAILABLE,0,INVALID,360,INVALID,0,
2014-02-06, 07:27:04,VALID,914.801,VALID,0,VALID,91.9079,VALID,56.8364,VALID,19.8603,VALID,118,VALID,1.03828,
2014-02-06, 07:28:04,VALID,914.808,VALID,0,VALID,91.885,VALID,57.3736,VALID,19.8588,VALID,125,VALID,0.962109,
2014-02-06, 07:29:04,VALID,914.828,VALID,0,VALID,91.8469,VALID,56.4066,VALID,19.8783,VALID,125,VALID,1.03867,
2014-02-06, 07:39:04,VALID,914.952,VALID,0,VALID,91.3438,VALID,56.7289,VALID,19.9953,VALID,157,VALID,0.901953,
2014-02-06, 07:40:04,VALID,914.989,VALID,0,VALID,91.3743,VALID,65.8614,VALID,20.0148,VALID,142,VALID,0.970312,
2014-02-06, 07:41:04,VALID,915.038,VALID,0,VALID,91.3819,VALID,78.0023,VALID,20.0343,VALID,143,VALID,0.480859,
2014-02-06, 07:42:04,VALID,915.057,VALID,0,VALID,91.0998,VALID,89.1762,VALID,20.0343,VALID,148,VALID,1.18789,
2014-02-06, 07:43:04,VALID,915.084,VALID,0,VALID,91.0083,VALID,100.028,VALID,20.0928,VALID,137,VALID,0.457422,
2014-02-06, 07:44:04,VALID,915.116,VALID,0,VALID,90.7263,VALID,113.458,VALID,20.1708,VALID,143,VALID,0.0625,
2014-02-06, 07:45:04,VALID,915.147,VALID,0,VALID,90.2841,VALID,103.573,VALID,20.2293,VALID,136,VALID,1.49688,
2014-02-06, 07:46:04,VALID,915.131,VALID,0,VALID,90.0173,VALID,103.788,VALID,20.3074,VALID,94,VALID,1.14258,
2014-02-06, 07:47:04,VALID,915.112,VALID,0,VALID,89.7581,VALID,109.053,VALID,20.3659,VALID,120,VALID,0.879687,
2014-02-06, 07:48:04,VALID,915.133,VALID,0,VALID,89.4837,VALID,118.4,VALID,20.4049,VALID,124,VALID,1.11094,
2014-02-06, 07:49:04,VALID,915.135,VALID,0,VALID,89.781,VALID,167.286,VALID,20.4829,VALID,119,VALID,0.359766,
2014-02-06, 07:50:04,VALID,915.104,VALID,0,VALID,89.5294,VALID,192.857,VALID,20.5609,VALID,119,VALID,0.769922,
2014-02-06, 07:51:04,VALID,915.175,VALID,0,VALID,88.9729,VALID,201.13,VALID,20.6975,VALID,137,VALID,0.705859,
2014-02-06, 07:52:04,VALID,915.17,VALID,0,VALID,88.3554,VALID,206.609,VALID,20.8145,VALID,162,VALID,0.294531,
2014-02-06, 07:53:04,VALID,915.188,VALID,0,VALID,87.8599,VALID,211.122,VALID,21.0096,VALID,129,VALID,0.656641,
2014-02-06, 07:54:04,VALID,915.208,VALID,0,VALID,87.0213,VALID,212.948,VALID,21.1868,VALID,155,VALID,0.494922,
2014-02-06, 07:55:04,VALID,915.211,VALID,0,VALID,85.5195,VALID,218.106,VALID,21.2437,VALID,128,VALID,1.38945,
2014-02-06, 07:56:04,VALID,915.223,VALID,0,VALID,86.0531,VALID,221.436,VALID,21.4209,VALID,128,VALID,0.450391,
2014-02-06, 07:57:04,VALID,915.233,VALID,0,VALID,84.78,VALID,222.296,VALID,21.5168,VALID,157,VALID,0.410156,
2014-02-06, 07:58:04,VALID,915.233,VALID,0,VALID,83.8271,VALID,223.585,VALID,21.6941,VALID,125,VALID,0.95,
2014-02-06, 07:59:04,VALID,915.259,VALID,0,VALID,83.545,VALID,223.155,VALID,21.7315,VALID,141,VALID,0.657812,
2014-02-06, 08:00:04,VALID,915.277,VALID,0,VALID,83.6746,VALID,221.436,VALID,21.8307,VALID,155,VALID,0.754297,
2014-02-06, 08:01:04,VALID,915.283,VALID,0,VALID,83.4383,VALID,223.048,VALID,21.8664,VALID,140,VALID,0.958203,
2014-02-06, 08:02:04,VALID,915.303,VALID,0,VALID,82.4396,VALID,224.122,VALID,21.9249,VALID,181,VALID,1.00508,
2014-02-06, 08:03:04,VALID,915.295,VALID,0,VALID,82.3176,VALID,227.668,VALID,21.9835,VALID,161,VALID,0.786719,
2014-02-06, 08:04:04,VALID,915.316,VALID,0,VALID,82.0966,VALID,226.271,VALID,22.0225,VALID,162,VALID,1.15234,
2014-02-06, 08:05:04,VALID,915.347,VALID,0,VALID,81.4486,VALID,227.131,VALID,22.003,VALID,162,VALID,0.704687,
2014-02-06, 08:06:04,VALID,915.357,VALID,0,VALID,81.7459,VALID,228.205,VALID,22.0013,VALID,162,VALID,0.727344,
2014-02-06, 08:07:04,VALID,915.317,VALID,0,VALID,81.6925,VALID,225.734,VALID,22.081,VALID,167,VALID,0.54375,
2014-02-06, 08:08:04,VALID,915.324,VALID,0,VALID,81.1818,VALID,232.288,VALID,22.0598,VALID,147,VALID,1.35508,
2014-02-06, 08:09:04,VALID,915.36,VALID,0,VALID,81.4333,VALID,239.164,VALID,22.1413,VALID,164,VALID,0.667188,
2014-02-06, 08:10:04,VALID,915.337,VALID,0,VALID,80.6024,VALID,240.453,VALID,22.2388,VALID,144,VALID,0.465234,
2014-02-06, 08:11:04,VALID,915.34,VALID,0,VALID,80.5795,VALID,244.321,VALID,22.2583,VALID,140,VALID,1.24922,
2014-02-06, 08:12:04,VALID,915.326,VALID,0,VALID,79.2912,VALID,248.082,VALID,22.2583,VALID,80,VALID,2.17305,
2014-02-06, 08:13:04,VALID,915.326,VALID,0,VALID,79.5046,VALID,252.057,VALID,22.0615,VALID,100,VALID,1.98359,
2014-02-06, 08:14:04,VALID,915.34,VALID,0,VALID,81.9365,VALID,253.561,VALID,22.042,VALID,92,VALID,0.661328,
2014-02-06, 08:15:04,VALID,915.345,VALID,0,VALID,80.3508,VALID,257.966,VALID,22.0827,VALID,105,VALID,1.51211,
2014-02-06, 08:16:04,VALID,915.375,VALID,0,VALID,81.9593,VALID,263.446,VALID,22.0615,VALID,83,VALID,0.795313,
2014-02-06, 08:17:04,VALID,915.361,VALID,0,VALID,82.4396,VALID,264.413,VALID,22.2193,VALID,155,VALID,0.818359,
2014-02-06, 08:18:04,VALID,915.368,VALID,0,VALID,81.4486,VALID,266.991,VALID,22.2779,VALID,147,VALID,1.41641,
2014-02-06, 08:19:04,VALID,915.364,VALID,0,VALID,82.188,VALID,266.561,VALID,22.3152,VALID,94,VALID,0.837109,
2014-02-06, 08:20:04,VALID,915.35,VALID,0,VALID,80.023,VALID,277.413,VALID,22.3152,VALID,152,VALID,1.44297,
2014-02-06, 08:21:04,VALID,915.377,VALID,0,VALID,81.0903,VALID,278.487,VALID,22.3737,VALID,97,VALID,0.643359,
2014-02-06, 08:22:04,VALID,915.37,VALID,0,VALID,79.4284,VALID,287.19,VALID,22.3169,VALID,139,VALID,1.86367,
2014-02-06, 08:23:04,VALID,915.417,VALID,0,VALID,79.0243,VALID,291.058,VALID,22.2762,VALID,136,VALID,1.84063,
2014-02-06, 08:24:04,VALID,915.444,VALID,0,VALID,80.5566,VALID,289.232,VALID,22.2176,VALID,150,VALID,0.984766,
2014-02-06, 08:25:04,VALID,915.439,VALID,0,VALID,80.6786,VALID,286.76,VALID,22.2957,VALID,139,VALID,0.906641,
2014-02-06, 08:26:04,VALID,915.443,VALID,0,VALID,78.6584,VALID,279.132,VALID,22.372,VALID,123,VALID,1.27461,
2014-02-06, 08:27:04,VALID,915.46,VALID,0,VALID,80.1374,VALID,276.016,VALID,22.4128,VALID,108,VALID,0.976953,
2014-02-06, 08:28:04,VALID,915.451,VALID,0,VALID,76.9279,VALID,281.496,VALID,22.3737,VALID,118,VALID,1.94961,
2014-02-06, 08:29:04,VALID,915.439,VALID,0,VALID,78.9024,VALID,282.57,VALID,22.3347,VALID,123,VALID,0.558203,
2014-02-06, 08:30:04,VALID,915.448,VALID,0,VALID,79.9925,VALID,280.959,VALID,22.4518,VALID,138,VALID,0.667969,
2014-02-06, 08:31:04,VALID,915.467,VALID,0,VALID,79.6418,VALID,278.165,VALID,22.4518,VALID,97,VALID,1.21719,
2014-02-06, 08:32:04,VALID,915.507,VALID,0,VALID,78.0257,VALID,280.099,VALID,22.4323,VALID,137,VALID,1.28828,
2014-02-06, 08:33:04,VALID,915.506,VALID,0,VALID,78.971,VALID,281.711,VALID,22.4518,VALID,140,VALID,0.533594,
2014-02-06, 08:34:04,VALID,915.513,VALID,0,VALID,78.3992,VALID,292.24,VALID,22.5281,VALID,130,VALID,1.01602,
2014-02-06, 08:35:04,VALID,915.518,VALID,0,VALID,79.192,VALID,303.521,VALID,22.6062,VALID,64,VALID,1.43359,
2014-02-06, 08:36:04,VALID,915.515,VALID,0,VALID,77.7055,VALID,316.522,VALID,22.7818,VALID,80,VALID,0.669922,
2014-02-06, 08:37:04,VALID,915.524,VALID,0,VALID,76.623,VALID,326.729,VALID,22.8616,VALID,101,VALID,1.15195,
2014-02-06, 08:38:04,VALID,915.495,VALID,0,VALID,77.6369,VALID,331.993,VALID,22.8599,VALID,109,VALID,0.844141,
2014-02-06, 08:39:04,VALID,915.535,VALID,0,VALID,78.1781,VALID,338.762,VALID,23.016,VALID,80,VALID,1.1207,
2014-02-06, 08:40:04,VALID,915.5,VALID,0,VALID,75.4947,VALID,345.208,VALID,23.1136,VALID,80,VALID,1.97773,
2014-02-06, 08:41:04,VALID,915.473,VALID,0,VALID,73.6727,VALID,352.944,VALID,23.0551,VALID,91,VALID,1.67031,
2014-02-06, 08:42:04,VALID,915.503,VALID,0,VALID,74.4884,VALID,357.779,VALID,22.977,VALID,118,VALID,1.46797,
2014-02-06, 08:43:04,VALID,915.509,VALID,0,VALID,75.4185,VALID,366.482,VALID,22.8989,VALID,121,VALID,1.39648,
2014-02-06, 08:44:04,VALID,915.49,VALID,0,VALID,75.8454,VALID,376.366,VALID,22.977,VALID,113,VALID,0.990234,
2014-02-06, 08:45:04,VALID,915.458,VALID,0,VALID,75.6167,VALID,386.681,VALID,23.0746,VALID,63,VALID,1.1375,
2014-02-06, 08:46:04,VALID,915.482,VALID,0,VALID,73.7413,VALID,390.119,VALID,23.2911,VALID,171,VALID,0.989062,
2014-02-06, 08:47:04,VALID,915.469,VALID,0,VALID,74.1149,VALID,399.466,VALID,23.4082,VALID,90,VALID,1.55703,
2014-02-06, 08:48:04,VALID,915.506,VALID,0,VALID,73.7337,VALID,406.665,VALID,23.4082,VALID,110,VALID,1.42031,
2014-02-06, 08:49:04,VALID,915.523,VALID,0,VALID,72.4377,VALID,411.392,VALID,23.3691,VALID,113,VALID,1.8293,
2014-02-06, 08:50:04,VALID,915.524,VALID,0,VALID,74.4503,VALID,418.376,VALID,23.3691,VALID,123,VALID,1.22891,
2014-02-06, 08:51:04,VALID,915.556,VALID,0,VALID,71.4695,VALID,425.037,VALID,23.4845,VALID,150,VALID,1.31758,
2014-02-06, 08:52:04,VALID,915.554,VALID,0,VALID,72.9408,VALID,430.946,VALID,23.6424,VALID,159,VALID,1.03437,
2014-02-06, 08:53:04,VALID,915.566,VALID,0,VALID,70.6919,VALID,430.946,VALID,23.6602,VALID,88,VALID,1.62422,
2014-02-06, 08:54:04,VALID,915.512,VALID,0,VALID,73.1619,VALID,441.153,VALID,23.6797,VALID,61,VALID,1.11953,
2014-02-06, 08:55:04,VALID,915.561,VALID,0,VALID,73.3449,VALID,443.947,VALID,23.8377,VALID,65,VALID,1.22812,
2014-02-06, 08:56:04,VALID,915.57,VALID,0,VALID,72.4529,VALID,443.41,VALID,23.9335,VALID,106,VALID,0.864453,
2014-02-06, 08:57:04,VALID,915.556,VALID,0,VALID,71.439,VALID,445.558,VALID,24.0896,VALID,84,VALID,0.645312,
2014-02-06, 08:58:04,VALID,915.523,VALID,0,VALID,67.5663,VALID,449.211,VALID,24.1873,VALID,174,VALID,1.66719,
2014-02-06, 08:59:04,VALID,915.58,VALID,0,VALID,68.1915,VALID,451.253,VALID,24.1482,VALID,157,VALID,0.919922,
2014-02-06, 09:00:04,VALID,915.587,VALID,0,VALID,66.8802,VALID,449.211,VALID,24.2458,VALID,180,VALID,0.674609,
2014-02-06, 09:01:04,VALID,915.575,VALID,0,VALID,68.0466,VALID,451.683,VALID,24.3416,VALID,164,VALID,0.707422,
2014-02-06, 09:02:04,VALID,915.586,VALID,0,VALID,66.926,VALID,454.046,VALID,24.4216,VALID,149,VALID,1.10469,
2014-02-06, 09:03:04,VALID,915.59,VALID,0,VALID,67.8636,VALID,451.253,VALID,24.5406,VALID,153,VALID,0.480859,
2014-02-06, 09:04:04,VALID,915.597,VALID,0,VALID,68.3211,VALID,443.195,VALID,24.5778,VALID,101,VALID,1.19805,
2014-02-06, 09:05:04,VALID,915.556,VALID,0,VALID,68.3515,VALID,444.806,VALID,24.4801,VALID,82,VALID,1.41914,
2014-02-06, 09:06:04,VALID,915.595,VALID,0,VALID,68.2067,VALID,410.318,VALID,24.5192,VALID,57,VALID,0.676562,
2014-02-06, 09:07:04,VALID,915.544,VALID,0,VALID,68.1533,VALID,409.458,VALID,24.5387,VALID,73,VALID,1.68945,
2014-02-06, 09:08:04,VALID,915.543,VALID,0,VALID,69.4493,VALID,423.211,VALID,24.244,VALID,90,VALID,1.36563,
2014-02-06, 09:09:04,VALID,915.577,VALID,0,VALID,67.6426,VALID,432.021,VALID,24.0896,VALID,115,VALID,1.0957,
2014-02-06, 09:10:04,VALID,915.522,VALID,0,VALID,69.2282,VALID,442.013,VALID,24.0311,VALID,115,VALID,0.757422,
2014-02-06, 09:11:04,VALID,915.554,VALID,0,VALID,69.7543,VALID,452.972,VALID,24.1854,VALID,115,VALID,0.857031,
2014-02-06, 09:12:04,VALID,915.516,VALID,0,VALID,67.3529,VALID,449.856,VALID,24.4216,VALID,115,VALID,0.830078,
2014-02-06, 09:13:04,VALID,915.523,VALID,0,VALID,66.1408,VALID,462.534,VALID,24.5582,VALID,115,VALID,0.566406,
2014-02-06, 09:14:04,VALID,915.482,VALID,0,VALID,67.2843,VALID,467.476,VALID,24.7144,VALID,115,VALID,0.420312,
2014-02-06, 09:15:04,VALID,915.489,VALID,0,VALID,63.8461,VALID,482.303,VALID,24.7535,VALID,163,VALID,1.65273,
2014-02-06, 09:16:04,VALID,915.437,VALID,0,VALID,64.334,VALID,494.014,VALID,24.6735,VALID,164,VALID,0.162109,
2014-02-06, 09:17:04,VALID,915.465,VALID,0,VALID,64.0443,VALID,504.006,VALID,24.9078,VALID,164,VALID,0.241406,
2014-02-06, 09:18:04,VALID,915.454,VALID,0,VALID,63.0304,VALID,508.089,VALID,25.2007,VALID,164,VALID,0.365234,
2014-02-06, 09:19:04,VALID,915.437,VALID,0,VALID,62.0622,VALID,513.998,VALID,25.4546,VALID,143,VALID,0.628906,
2014-02-06, 09:20:04,VALID,915.472,VALID,0,VALID,63.1676,VALID,514.858,VALID,25.6499,VALID,99,VALID,0.313281,
2014-02-06, 09:21:04,VALID,915.445,VALID,0,VALID,61.6048,VALID,513.891,VALID,25.9234,VALID,126,VALID,0.460547,
2014-02-06, 09:22:04,VALID,915.466,VALID,0,VALID,59.8819,VALID,517.222,VALID,26.0796,VALID,158,VALID,0.710938,
2014-02-06, 09:23:04,VALID,915.435,VALID,0,VALID,61.1703,VALID,532.908,VALID,26.0406,VALID,112,VALID,1.3832,
2014-02-06, 09:24:04,VALID,915.457,VALID,0,VALID,60.1945,VALID,542.041,VALID,25.8648,VALID,95,VALID,1.13789,
2014-02-06, 09:25:04,VALID,915.469,VALID,0,VALID,62.1918,VALID,549.347,VALID,25.7866,VALID,88,VALID,0.925,
2014-02-06, 09:26:04,VALID,915.438,VALID,0,VALID,62.7178,VALID,552.14,VALID,25.8648,VALID,93,VALID,0.775781,
2014-02-06, 09:27:04,VALID,915.433,VALID,0,VALID,60.4156,VALID,540.536,VALID,25.6304,VALID,119,VALID,0.887891,
2014-02-06, 09:28:04,VALID,915.45,VALID,0,VALID,60.3851,VALID,544.512,VALID,25.6499,VALID,118,VALID,0.851172,
2014-02-06, 09:29:04,VALID,915.4,VALID,0,VALID,62.8093,VALID,547.413,VALID,25.5718,VALID,73,VALID,1.21914,
2014-02-06, 09:30:04,VALID,915.438,VALID,0,VALID,61.4219,VALID,555.901,VALID,25.6694,VALID,62,VALID,1.72812,
2014-02-06, 09:31:04,VALID,915.438,VALID,0,VALID,63.0228,VALID,560.521,VALID,25.396,VALID,53,VALID,1.30898,
2014-02-06, 09:32:04,VALID,915.467,VALID,0,VALID,63.1295,VALID,556.975,VALID,25.3198,VALID,54,VALID,1.36875,
2014-02-06, 09:33:04,VALID,915.476,VALID,0,VALID,62.2223,VALID,558.694,VALID,25.3198,VALID,36,VALID,0.734766,
2014-02-06, 09:34:04,VALID,915.471,VALID,0,VALID,62.4053,VALID,563.099,VALID,25.4175,VALID,36,VALID,0.8875,
2014-02-06, 09:35:04,VALID,915.5,VALID,0,VALID,62.8856,VALID,577.174,VALID,25.5737,VALID,125,VALID,1.08984,
2014-02-06, 09:36:04,VALID,915.475,VALID,0,VALID,63.3277,VALID,576.637,VALID,25.3003,VALID,137,VALID,1.66602,
2014-02-06, 09:37:04,VALID,915.481,VALID,0,VALID,63.4954,VALID,578.785,VALID,25.2417,VALID,129,VALID,1.32695,
2014-02-06, 09:38:04,VALID,915.467,VALID,0,VALID,64.0672,VALID,568.471,VALID,25.2398,VALID,163,VALID,0.898828,
2014-02-06, 09:39:04,VALID,915.46,VALID,0,VALID,61.7802,VALID,575.24,VALID,25.3179,VALID,140,VALID,0.508203,
2014-02-06, 09:40:04,VALID,915.426,VALID,0,VALID,65.0735,VALID,578.785,VALID,25.4565,VALID,106,VALID,0.881641,
2014-02-06, 09:41:04,VALID,915.416,VALID,0,VALID,62.5425,VALID,575.347,VALID,25.5542,VALID,85,VALID,1.3418,
2014-02-06, 09:42:04,VALID,915.402,VALID,0,VALID,62.1156,VALID,580.827,VALID,25.4761,VALID,85,VALID,0.433984,
2014-02-06, 09:43:04,VALID,915.429,VALID,0,VALID,62.1842,VALID,586.199,VALID,25.5542,VALID,85,VALID,1.12734,
2014-02-06, 09:44:04,VALID,915.415,VALID,0,VALID,61.9021,VALID,586.629,VALID,25.7085,VALID,85,VALID,1.7332,
2014-02-06, 09:45:04,VALID,915.427,VALID,0,VALID,62.0241,VALID,575.347,VALID,25.6128,VALID,55,VALID,1.27305,
2014-02-06, 09:46:04,VALID,915.425,VALID,0,VALID,62.0927,VALID,568.041,VALID,25.6499,VALID,35,VALID,1.22148,
2014-02-06, 09:47:04,VALID,915.432,VALID,0,VALID,62.2223,VALID,567.074,VALID,25.7085,VALID,62,VALID,1.77617,
2014-02-06, 09:48:04,VALID,915.435,VALID,0,VALID,61.4524,VALID,560.628,VALID,25.5542,VALID,75,VALID,1.06836,
2014-02-06, 09:49:04,VALID,915.449,VALID,0,VALID,62.2528,VALID,555.471,VALID,25.4546,VALID,35,VALID,1.84297,
2014-02-06, 09:50:04,VALID,915.45,VALID,0,VALID,62.8551,VALID,545.586,VALID,25.5347,VALID,360,VALID,1.35977,
2014-02-06, 09:51:04,VALID,915.419,VALID,0,VALID,63.6327,VALID,556.115,VALID,25.6714,VALID,52,VALID,1.87344,
2014-02-06, 09:52:04,VALID,915.449,VALID,0,VALID,63.7394,VALID,563.959,VALID,25.8081,VALID,13,VALID,1.29805,
2014-02-06, 09:53:04,VALID,915.424,VALID,0,VALID,62.1613,VALID,562.884,VALID,25.9839,VALID,210,VALID,0.261328,
2014-02-06, 09:54:04,VALID,915.414,VALID,0,VALID,59.9429,VALID,548.057,VALID,26.1793,VALID,77,VALID,0.403125,
2014-02-06, 09:55:04,VALID,915.426,VALID,0,VALID,59.4398,VALID,545.264,VALID,26.2945,VALID,77,VALID,0.400391,
2014-02-06, 09:56:04,VALID,915.412,VALID,0,VALID,61.3837,VALID,529.577,VALID,26.4332,VALID,35,VALID,2.47266,
2014-02-06, 09:57:04,VALID,915.447,VALID,0,VALID,61.0559,VALID,521.304,VALID,26.3336,VALID,64,VALID,1.85,
2014-02-06, 09:58:04,VALID,915.443,VALID,0,VALID,61.5972,VALID,481.766,VALID,26.0796,VALID,39,VALID,1.16602,
2014-02-06, 09:59:04,VALID,915.435,VALID,0,VALID,62.9618,VALID,494.659,VALID,25.8843,VALID,47,VALID,1.81445,
2014-02-06, 10:00:04,VALID,915.4,VALID,0,VALID,62.7788,VALID,501.858,VALID,25.6694,VALID,54,VALID,1.76367,
2014-02-06, 10:01:04,VALID,915.406,VALID,0,VALID,62.9389,VALID,529.47,VALID,25.4937,VALID,78,VALID,0.753516,
2014-02-06, 10:02:04,VALID,915.403,VALID,0,VALID,62.3062,VALID,561.058,VALID,25.5523,VALID,78,VALID,0.764453,
2014-02-06, 10:03:04,VALID,915.392,VALID,0,VALID,61.3761,VALID,575.347,VALID,25.7866,VALID,78,VALID,0.15625,
2014-02-06, 10:04:04,VALID,915.381,VALID,0,VALID,60.9949,VALID,613.167,VALID,26.0992,VALID,78,VALID,0.39375,
2014-02-06, 10:05:04,VALID,915.394,VALID,0,VALID,59.0738,VALID,616.282,VALID,26.275,VALID,208,VALID,1.28203,
2014-02-06, 10:06:04,VALID,915.43,VALID,0,VALID,58.4564,VALID,627.779,VALID,26.4312,VALID,208,VALID,0.394531,
2014-02-06, 10:07:04,VALID,915.384,VALID,0,VALID,57.9837,VALID,640.242,VALID,26.5464,VALID,208,VALID,0.04375,
2014-02-06, 10:08:04,VALID,915.395,VALID,0,VALID,58.5555,VALID,636.159,VALID,26.8415,VALID,210,VALID,0.219531,
2014-02-06, 10:09:04,VALID,915.388,VALID,0,VALID,58.9138,VALID,647.548,VALID,26.9587,VALID,213,VALID,0.639844,
2014-02-06, 10:10:04,VALID,915.391,VALID,0,VALID,57.5339,VALID,669.896,VALID,27.1716,VALID,187,VALID,0.45,
2014-02-06, 10:11:04,VALID,915.377,VALID,0,VALID,58.1667,VALID,488.32,VALID,27.0739,VALID,171,VALID,1.0707,
2014-02-06, 10:12:04,VALID,915.337,VALID,0,VALID,57.4958,VALID,622.514,VALID,26.9587,VALID,192,VALID,1.46328,
2014-02-06, 10:13:04,VALID,915.346,VALID,0,VALID,58.8528,VALID,480.799,VALID,26.7829,VALID,187,VALID,1.55234,
2014-02-06, 10:14:04,VALID,915.333,VALID,0,VALID,59.051,VALID,643.358,VALID,26.6246,VALID,168,VALID,2.32539,
2014-02-06, 10:15:04,VALID,915.308,VALID,0,VALID,59.4931,VALID,658.507,VALID,26.4898,VALID,184,VALID,0.837891,
2014-02-06, 10:16:04,VALID,915.314,VALID,0,VALID,59.4398,VALID,653.565,VALID,26.3531,VALID,191,VALID,0.962109,
2014-02-06, 10:17:04,VALID,915.31,VALID,0,VALID,61.9555,VALID,655.821,VALID,26.2144,VALID,139,VALID,1.94023,
2014-02-06, 10:18:04,VALID,915.31,VALID,0,VALID,60.3775,VALID,641.316,VALID,25.7847,VALID,119,VALID,2.00039,
2014-02-06, 10:19:04,VALID,915.272,VALID,0,VALID,64.5627,VALID,620.258,VALID,25.4937,VALID,92,VALID,1.93906,
2014-02-06, 10:20:04,VALID,915.227,VALID,0,VALID,64.4941,VALID,589.53,VALID,25.5308,VALID,67,VALID,2.10195,
2014-02-06, 10:21:04,VALID,915.246,VALID,0,VALID,63.7623,VALID,630.68,VALID,25.5308,VALID,87,VALID,2.39648,
2014-02-06, 10:22:04,VALID,915.214,VALID,0,VALID,64.1358,VALID,664.201,VALID,25.4331,VALID,60,VALID,1.01484,
2014-02-06, 10:23:04,VALID,915.228,VALID,0,VALID,63.625,VALID,680.747,VALID,25.689,VALID,33,VALID,1.49297,
2014-02-06, 10:24:04,VALID,915.191,VALID,0,VALID,64.2044,VALID,682.359,VALID,25.8823,VALID,56,VALID,1.42461,
2014-02-06, 10:25:04,VALID,915.164,VALID,0,VALID,63.1066,VALID,696.326,VALID,26.0581,VALID,40,VALID,2.65039,
2014-02-06, 10:26:04,VALID,915.216,VALID,0,VALID,62.451,VALID,691.814,VALID,26.275,VALID,51,VALID,2.23867,
2014-02-06, 10:27:04,VALID,915.205,VALID,0,VALID,59.981,VALID,705.673,VALID,26.3336,VALID,109,VALID,0.464453,
2014-02-06, 10:28:04,VALID,915.188,VALID,0,VALID,60.9568,VALID,703.095,VALID,26.2534,VALID,76,VALID,2.29961,
2014-02-06, 10:29:04,VALID,915.193,VALID,0,VALID,61.0788,VALID,708.789,VALID,26.2554,VALID,103,VALID,1.01289,
2014-02-06, 10:30:04,VALID,915.183,VALID,0,VALID,59.7066,VALID,718.889,VALID,26.1948,VALID,145,VALID,1.76758,
2014-02-06, 10:31:04,VALID,915.179,VALID,0,VALID,61.742,VALID,717.277,VALID,25.9995,VALID,126,VALID,1.21719,
2014-02-06, 10:32:04,VALID,915.174,VALID,0,VALID,61.0254,VALID,718.029,VALID,25.9995,VALID,132,VALID,1.78789,
2014-02-06, 10:33:04,VALID,915.111,VALID,0,VALID,63.2286,VALID,710.616,VALID,26.0972,VALID,73,VALID,2.30234,
2014-02-06, 10:34:04,VALID,915.123,VALID,0,VALID,62.0622,VALID,712.335,VALID,26.0406,VALID,88,VALID,1.39219,
2014-02-06, 10:35:04,VALID,915.064,VALID,0,VALID,62.9389,VALID,720.285,VALID,25.9604,VALID,46,VALID,2.48906,
2014-02-06, 10:36:04,VALID,915.074,VALID,0,VALID,63.1219,VALID,729.203,VALID,25.9604,VALID,107,VALID,0.691797,
2014-02-06, 10:37:04,VALID,915.106,VALID,0,VALID,62.9465,VALID,728.558,VALID,26.1968,VALID,224,VALID,0.692578,
2014-02-06, 10:38:04,VALID,915.102,VALID,0,VALID,61.1855,VALID,723.079,VALID,26.4878,VALID,192,VALID,1.7668,
2014-02-06, 10:39:04,VALID,915.083,VALID,0,VALID,59.1806,VALID,679.995,VALID,26.6832,VALID,207,VALID,0.755859,
2014-02-06, 10:40:04,VALID,915.113,VALID,0,VALID,60.4079,VALID,654.961,VALID,26.9372,VALID,195,VALID,0.4375,
2014-02-06, 10:41:04,VALID,915.077,VALID,0,VALID,58.1667,VALID,576.099,VALID,26.9176,VALID,109,VALID,1.78242,
2014-02-06, 10:42:04,VALID,915.087,VALID,0,VALID,59.4322,VALID,471.129,VALID,26.859,VALID,210,VALID,1.21992,
2014-02-06, 10:43:04,VALID,915.06,VALID,0,VALID,58.6774,VALID,345.853,VALID,26.9176,VALID,155,VALID,1.65508,
2014-02-06, 10:44:04,VALID,915.03,VALID,0,VALID,58.0981,VALID,260.545,VALID,26.8004,VALID,183,VALID,1.46641,
2014-02-06, 10:45:04,VALID,914.97,VALID,0,VALID,57.0155,VALID,237.982,VALID,26.7809,VALID,194,VALID,2.52383,
2014-02-06, 10:46:04,VALID,915.026,VALID,0,VALID,61.3228,VALID,234.114,VALID,26.7418,VALID,113,VALID,1.63906,
2014-02-06, 10:47:04,VALID,915.032,VALID,0,VALID,57.9913,VALID,231.428,VALID,26.7418,VALID,150,VALID,3.18359,
2014-02-06, 10:48:04,VALID,914.992,VALID,0,VALID,59.9429,VALID,229.172,VALID,26.6616,VALID,93,VALID,1.00781,
2014-02-06, 10:49:04,VALID,914.954,VALID,0,VALID,58.7079,VALID,228.098,VALID,26.7418,VALID,46,VALID,2.00742,
2014-02-06, 10:50:04,VALID,914.961,VALID,0,VALID,58.746,VALID,230.032,VALID,26.9372,VALID,154,VALID,2.03984,
2014-02-06, 10:51:04,VALID,914.933,VALID,0,VALID,57.7855,VALID,233.899,VALID,26.859,VALID,159,VALID,0.580078,
2014-02-06, 10:52:04,VALID,914.924,VALID,0,VALID,58.6774,VALID,237.015,VALID,26.9958,VALID,234,VALID,1.73672,
2014-02-06, 10:53:04,VALID,914.927,VALID,0,VALID,57.0613,VALID,247.33,VALID,27.2107,VALID,176,VALID,1.28711,
2014-02-06, 10:54:04,VALID,914.927,VALID,0,VALID,56.4819,VALID,254.958,VALID,27.3084,VALID,194,VALID,1.95078,
2014-02-06, 10:55:04,VALID,914.917,VALID,0,VALID,57.8007,VALID,260.115,VALID,27.4647,VALID,163,VALID,0.671094,
2014-02-06, 10:56:04,VALID,914.888,VALID,0,VALID,56.5886,VALID,264.628,VALID,27.5819,VALID,48,VALID,0.761328,
2014-02-06, 10:57:04,VALID,914.888,VALID,0,VALID,54.1186,VALID,280.959,VALID,27.4431,VALID,88,VALID,0.892578,
2014-02-06, 10:58:04,VALID,914.915,VALID,0,VALID,53.928,VALID,345.531,VALID,27.4842,VALID,194,VALID,2.46016,
2014-02-06, 10:59:04,VALID,914.899,VALID,0,VALID,55.1402,VALID,303.414,VALID,27.4256,VALID,175,VALID,2.26563,
2014-02-06, 11:00:04,VALID,914.887,VALID,0,VALID,55.4908,VALID,503.899,VALID,27.1716,VALID,189,VALID,1.70898,
2014-02-06, 11:01:04,VALID,914.85,VALID,0,VALID,56.0855,VALID,344.886,VALID,27.2693,VALID,160,VALID,1.24375,
2014-02-06, 11:02:04,VALID,914.851,VALID,0,VALID,55.4375,VALID,867.587,VALID,27.2693,VALID,201,VALID,2.41719,
2014-02-06, 11:03:04,VALID,914.864,VALID,0,VALID,55.5976,VALID,871.133,VALID,27.1891,VALID,166,VALID,2.30703,
2014-02-06, 11:04:04,VALID,914.88,VALID,0,VALID,54.9343,VALID,864.471,VALID,27.1109,VALID,164,VALID,2.70703,
2014-02-06, 11:05:04,VALID,914.82,VALID,0,VALID,55.2469,VALID,857.488,VALID,27.0523,VALID,168,VALID,1.64883,
2014-02-06, 11:06:04,VALID,914.816,VALID,0,VALID,55.2621,VALID,891.332,VALID,27.0328,VALID,156,VALID,0.926953,
2014-02-06, 11:07:04,VALID,914.818,VALID,0,VALID,56.337,VALID,409.673,VALID,27.2672,VALID,197,VALID,1.34375,
2014-02-06, 11:08:04,VALID,914.781,VALID,0,VALID,56.3065,VALID,371.209,VALID,27.4214,VALID,229,VALID,0.980469,